Regional Weather Roundup
Issued by NWS Kansas City/Pleasant Hill, MO

Home | Current Version | Previous Version | Graphics & Text | Print | Product List | Glossary Off
Versions: 1 2 3 4 5 6 7 8 9 10 11 12 13 14 15 16 17 18 19 20 21 22 23 24 25 26 27 28 29 30 31 32 33 34 35 36 37 38 39 40 41 42 43 44 45 46 47 48 49 50

948
ASUS43 KEAX 190810
RWREAX

WEATHER ROUNDUP FOR EASTERN KANSAS AND NORTHWEST MISSOURI
NATIONAL WEATHER SERVICE KANSAS CITY/PLEASANT HILL MO
200 AM CST SUN FEB 19 2017

KSZ040-057-103>105-MOZ028-029-037-043-190900-
...KANSAS CITY METROPOLITAN AREA...

CITY           SKY/WX    TMP DP  RH WIND       PRES   REMARKS
K.C. INTL      CLEAR     47  46  97 S5        29.89R
K.C. DOWNTOWN  PTCLDY    55  50  83 SW3       29.89R
LEES SUMMIT    CLEAR     52  49  89 SW7       29.91R
OLATHE - IXD   CLEAR     46  45  96 S3        29.91R FOG
OLATHE - OJC   CLEAR     48  48 100 S5        29.90R
LAWRENCE       CLEAR     42  42 100 CALM      29.90R

$$

MOZ001>008-011>017-020>025-030>033-038>040-044>046-053-054-190900-
...NORTHERN AND CENTRAL MISSOURI...

CITY           SKY/WX    TMP DP  RH WIND       PRES   REMARKS
ST. JOSEPH     CLEAR     39  34  82 CALM      29.89R
WARRENSBURG    CLEAR     48  46  93 CALM      29.90S
WHITEMAN AFB   CLEAR     47  47 100 SW6       29.90R
CLINTON        CLEAR     43  43 100 CALM      29.92R FOG
SEDALIA        CLEAR     53  49  86 SW9       29.91F
WARSAW         NOT AVBL
CHILLICOTHE      N/A     40  36  86 CALM      29.91R
KIRKSVILLE     CLOUDY    37  33  85 SW6       29.92R WCI  32

$$

MOZ041-047>049-056>058-063>065-088>090-097-190900-
...EASTERN AND SOUTHERN MISSOURI...

CITY           SKY/WX    TMP DP  RH WIND       PRES   REMARKS
ST. LOUIS INTL CLEAR     51  47  86 SW5       29.94R
SPIRIT OF STL  CLEAR     48  47  96 W7        29.93R
COLUMBIA       CLEAR     49  44  83 SE6       29.92S
JEFFERSON CITY CLEAR     42  40  92 CALM      29.93R
ROLLA          CLEAR     49  48  97 S10       29.93R FOG
OSAGE BEACH    CLEAR     50  46  86 CALM      29.93S
SPRINGFIELD    CLEAR     47  44  90 SE8       29.91S
BRANSON        CLEAR     50  48  93 CALM      29.94S
JOPLIN         CLEAR     48  48 100 S5        29.92R FOG
WEST PLAINS    FOG       45  45 100 S3        29.96F VSB 1/4

$$

IAZ060-094-KSZ022-034>040-054-083-096-NEZ052-066-093-190900-
...KANSAS...SOUTHEAST NEBRASKA AND IOWA...

CITY           SKY/WX    TMP DP  RH WIND       PRES   REMARKS
TOPEKA         PTCLDY    49  45  86 CALM      29.89R
MANHATTAN      PTCLDY    50  46  86 S5        29.85F
EMPORIA        CLEAR     47  46  97 SE9       29.86F FOG
CHANUTE        FOG       39  39 100 CALM      29.91R VSB<1/4
WICHITA        PTCLDY    44  43  96 S7        29.86R
OMAHA          CLOUDY    42  32  67 S5        29.83F
LINCOLN        PTCLDY    37  30  75 N3        29.84R
FALLS CITY     CLEAR     50  43  77 S10       29.86R
LAMONI         CLEAR     48  32  53 S7        29.89R
DES MOINES     CLOUDY    45  38  76 SE3       29.90R

$$





USA.gov is the U.S. government's official web portal to all federal, state and local government web resources and services.